SCP
0 0 0 0 0 0 0 0 0 0 0 0 0 0 0 0 0 0 0 0 0 0 0 0 0 0 0 0 0 0 0 0 0 0 0 0 0 0 0 0 -0 0 0 0 0 0 0 0 0 0 0 -0 0 0
0 0 0 0 0 0 0 0 0 0 0 0 0 0 0 0 0 0 0 0 0 0 0 0 0 -0 -0 0 0 0 0 0 0 0 0 0 0 0 0 -0 0 0 0 0 0 0 -0 0 0 0 0 0 -0 0
0 0 0 0 0 0 0 0 0 0 0 0 0 -0 0 0 0 0 0 0 0 0 0 0 0 0 0 0 0 0 0 0 0 -0 0 0 0 0 0 0 0 0 -0 0 0 0 -0 0 0 0 0 0 0 -0
0 0 0 0 0 0 0 0 0 0 0 0 0 -0 0 0 0 0 0 0 0 0 0 0 0 0 0 0 0 0 -0 -0 -0 -0 0 0 0 0 0 -0 -0 0 0 0 0 0 -0 0 0 0 -0 -0 0 -0
0 0 0 0 0 0 0 0 0 0 0 0 0 0 0 0 0 0 0 0 0 0 0 0 0 0 0 0 0 0 0 -0 -0 0 0 0 0 0 0 0 0 0 0 0 0 -0 0 -0 0 0 -0 0 0 -0
0 0 0 0 0 0 0 0 0 0 0 0 0 -0 0 0 0 0 -0 0 0 0 0 0 0 0 0 0 0 0 0 0 0 0 0 0 0 0 0 0 0 0 0 0 0 0 0 0 0 0 -0 0 0 0
0 0 0 0 0 0 0 0 0 0 0 0 0 0 0 0 0 0 0 0 0 0 0 0 0 0 0 0 0 0 0 0 0 0 0 0 0 0 0 0 -0 -0 -0 0 0 0 -0 0 -0 0 -0 0 -0 -0
0 0 0 0 0 0 0 0 0 0 0 0 0 0 0 0 0 0 0 0 0 0 0 0 0 0 0 0 0 0 0 0 0 0 0 0 0 0 0 0 0 -0 0 0 0 0 -0 0 0 0 0 0 -0 -0
0 0 0 0 0 0 0 0 0 0 0 0 0 0 0 0 0 0 0 0 0 0 0 0 0 0 0 0 0 0 0 0 0 0 0 0 0 0 0 -0 -0 0 0 0 0 0 0 0 0 0 -0 -0 0 -0
0 0 0 0 0 0 0 0 0 0 0 0 0 0 0 0 0 0 0 0 0 0 0 0 0 0 0 0 0 0 -0 0 -0 0 0 0 0 0 -0 0 0 0 0 0 0 -0 -0 0 0 -0 0 0 -0 -0
0 0 0 0 0 0 0 0 0 0 0 0 0 0 0 0 0 0 0 0 0 0 0 0 0 0 0 0 0 -0 -0 0 -0 0 -0 0 0 -0 0 0 0 0 0 0 0 0 -0 -0 0 0 -0 -0 -0 -0
0 0 0 0 0 0 0 0 -0 0 0 0 0 0 0 0 0 0 0 0 0 0 0 -0 0 0 0 -0 -0 -0 -0 -0 -0 0 0 0 0 -0 -0 -0 -0 0 0 0 0 -0 -0 -0 0 0 -0 -0 -0 0
0 0 0 0 0 0 0 -0 0 0 0 0 0 0 0 0 0 0 0 0 0 0 -0 -0 0 0 -0 -0 -0 -0 -0 -0 -0 -0 -0 0 -0 -0 -0 -0 0 0 0 0 0 0 0 -0 0 0 -0 -0 -0 -0
0 0 0 0 -0 -0 -0 -0 -0 0 0 0 0 0 0 0 0 0 0 0 0 0 -0 -0 0 0 -0 -0 -0 -0 -0 0 -0 0 0 0 0 -0 -0 -0 0 0 0 0 -0 -0 -0 -0 0 -0 -0 -0 -0 -0
0 0 0 -0 -0 -0 -0 -0 -0 0 0 0 0 0 0 0 0 0 0 0 0 0 0 -0 -0 0 -0 -0 -0 -0 -0 -0 -0 -0 -0 0 0 -0 -0 -0 -0 0 0 0 -0 -0 -0 -0 -0 0 -0 -0 0 0
0 0 0 -0 -0 -0 -0 0 0 0 0 0 0 0 0 0 0 0 -0 0 0 0 0 0 -0 -0 -0 -0 -0 -0 -0 0 -0 -0 -0 0 0 -0 -0 -0 -0 0 0 0 -0 -0 -0 -0 -0 -0 -0 -0 -0 -0
0 0 -0 -0 -0 -0 -0 0 0 0 0 0 0 -0 0 0 0 0 0 0 0 0 0 0 0 0 0 0 0 -0 -0 -0 -0 -0 -0 -0 0 0 0 -0 -0 0 0 -0 -0 -0 -0 -0 -0 -0 -0 -0 -0 -0
0 0 -0 -0 -0 0 0 0 0 0 0 0 0 0 0 0 0 0 0 0 0 0 0 0 0 -0 -0 0 0 0 -0 -0 -0 -0 -0 -0 0 0 0 -0 -0 -0 0 0 -0 -0 -0 -0 -0 -0 -0 0 -0 -0
0 -0 -0 -0 0 0 0 0 0 0 0 0 0 0 0 0 0 0 0 0 0 0 0 0 0 0 0 0 0 0 0 0 -0 -0 -0 0 0 0 0 0 0 0 0 0 0 -0 -0 -0 -0 -0 -0 0 0 0
-0 -0 -0 0 0 0 0 0 0 0 0 0 0 -0 0 0 0 0 0 0 0 0 0 0 0 0 0 0 0 0 0 0 0 -0 -0 0 0 0 0 0 0 0 -0 0 -0 -0 0 -0 -0 -0 0 -0 -0 0
0 0 0 0 0 0 0 0 0 0 0 0 -0 -0 0 0 0 0 0 0 0 0 0 0 0 0 0 0 0 0 0 0 0 0 0 0 0 0 0 0 0 0 0 0 0 0 0 0 -0 -0 -0 0 -0 0
0 0 0 0 0 0 0 0 0 0 0 0 -0 -0 -0 -0 0 0 0 0 0 0 0 0 0 0 0 0 0 0 0 0 0 0 0 0 0 0 0 0 0 0 0 0 0 0 0 0 0 -0 -0 0 0 0
0 0 0 0 0 0 0 0 0 0 0 0 -0 0 0 0 0 0 0 0 0 0 0 0 0 0 0 0 0 0 0 0 -0 0 0 0 0 0 0 0 0 0 0 0 0 0 0 0 0 0 -0 -0 0 -0
0 0 0 0 0 0 0 0 0 0 0 0 0 0 0 0 0 0 0 0 0 0 0 0 0 0 0 0 0 0 0 0 0 0 0 0 0 0 0 0 0 0 0 0 0 0 0 0 0 0 0 0 0 -0
0 0 0 0 0 0 0 0 0 0 0 0 0 0 0 0 0 0 0 0 0 0 0 0 0 0 0 0 0 0 0 0 0 0 0 0 0 0 0 0 0 0 -0 -0 0 0 0 0 0 0 0 0 0 0
0 0 0 0 0 0 0 0 0 0 0 0 0 0 0 0 0 0 0 0 0 0 0 0 0 0 0 0 0 0 0 0 0 0 0 0 0 0 0 0 0 0 0 0 0 0 0 0 0 0 0 0 0 0
0 0 0 0 0 0 0 0 0 0 0 0 0 0 0 0 0 0 0 0 0 0 0 0 0 0 0 0 0 0 0 0 0 0 0 0 0 0 0 0 0 0 0 0 0 0 0 0 0 0 0 0 0 0
0 0 0 0 0 0 0 0 0 0 0 0 0 0 0 0 0 0 0 0 0 0 0 0 0 0 0 0 0 0 0 0 0 0 0 0 0 0 0 0 0 0 -0 0 0 0 0 0 0 0 0 0 0 0
0 0 0 0 0 0 0 0 0 0 0 0 0 0 0 0 0 0 0 0 0 0 0 0 0 0 0 0 0 0 0 0 0 0 0 0 0 0 0 0 0 0 0 0 0 -0 0 -0 -0 0 0 0 0 0
0 0 0 0 0 0 0 0 0 0 0 0 0 0 0 0 0 0 0 0 0 0 0 0 0 0 0 0 0 0 0 0 0 0 0 0 0 0 0 0 0 0 0 0 0 0 0 0 0 0 -0 -0 -0 -0
0 0 0 0 0 0 0 0 0 0 0 0 0 0 0 0 0 0 0 0 0 0 0 0 0 0 0 0 0 0 0 0 0 0 0 0 0 0 0 0 0 0 0 0 0 0 0 0 0 0 0 0 0 0
0 0 0 0 0 0 0 0 0 0 0 0 0 0 0 0 0 0 0 0 0 0 0 0 0 0 0 0 0 0 0 0 0 0 0 0 0 0 0 0 0 0 0 0 0 0 0 0 0 0 0 0 0 0
0 0 0 0 0 0 0 0 0 0 0 0 0 0 0 0 0 0 0 0 0 0 0 0 0 0 0 0 0 0 0 0 0 0 0 0 0 0 0 0 0 0 0 0 0 0 0 0 0 0 0 0 0 0
Wind_Speed_500mb
46 47 49 54 60 65 66 64 61 53 51 42 40 33 31 33 32 24 10 20 12 16 41 33 27 22 17 16 12 20 11 8 6 7 4 5 7 9 13 18 18 7 7 10 14 12 15 18 30 11 32 61 59 61
43 45 47 45 47 49 64 61 56 48 39 41 41 33 34 33 32 25 9 13 13 21 28 32 34 32 29 24 19 11 10 7 9 7 5 7 5 9 10 9 9 8 2 7 10 11 45 51 41 53 56 49 64 58
40 45 45 43 43 42 51 61 54 50 45 30 34 31 32 32 34 28 11 17 18 19 34 19 16 19 17 22 20 12 16 7 4 13 8 5 8 8 7 11 20 15 24 14 22 7 41 53 58 47 53 61 64 68
34 34 37 41 41 39 41 61 56 48 42 31 33 30 30 34 37 30 12 11 15 14 12 1 10 7 10 16 20 24 17 10 12 11 4 7 7 8 10 14 21 15 26 19 24 33 58 28 46 51 60 70 83 75
39 40 35 36 38 37 41 50 60 47 42 37 33 30 31 37 35 28 18 19 25 11 13 27 36 29 20 16 14 19 22 21 17 10 6 6 14 13 12 14 4 8 7 6 11 50 43 56 67 85 92 80 84 68
41 42 43 39 38 37 38 39 57 47 40 31 29 23 36 36 33 16 7 15 27 24 9 8 11 13 18 15 15 19 19 16 17 6 9 12 7 2 6 7 10 35 38 32 16 49 66 80 90 69 70 92 75 75
45 45 44 43 40 38 37 35 50 47 31 23 16 18 37 33 30 15 5 7 17 17 7 11 9 20 19 12 16 17 18 9 11 4 10 15 6 6 3 5 37 48 45 53 40 50 56 54 70 72 77 87 72 72
48 48 47 41 39 37 36 31 42 43 23 14 16 26 30 28 28 25 22 19 27 12 8 6 10 16 20 18 20 17 14 11 14 9 8 8 1 12 7 23 49 47 56 40 47 57 60 63 68 72 86 77 71 66
47 45 39 34 34 35 34 26 36 32 18 18 19 25 20 12 10 9 16 20 26 16 6 8 8 3 12 24 12 20 17 8 14 8 5 7 7 2 15 28 41 52 44 55 58 55 56 60 64 73 82 67 68 68
48 47 43 38 34 33 29 25 35 23 26 23 27 9 8 10 15 16 12 17 20 13 14 10 31 12 3 11 11 5 13 8 10 4 11 5 5 6 22 29 38 47 46 44 50 54 62 70 70 73 75 70 62 67
54 48 41 38 34 30 30 34 31 37 37 37 14 13 11 18 20 6 9 14 15 8 14 18 26 15 1 9 7 10 4 6 4 4 4 8 4 19 33 38 48 50 41 41 43 49 54 62 60 74 82 70 69 67
47 42 39 34 34 33 32 43 49 49 35 24 17 16 19 9 7 7 8 9 12 8 17 20 12 12 2 0 1 4 4 6 2 9 6 6 8 28 37 44 51 49 46 44 43 49 53 61 66 76 82 75 78 74
37 37 37 35 36 43 40 49 53 48 34 31 10 8 8 11 11 10 12 8 7 14 17 17 11 9 10 5 8 4 6 4 5 5 5 6 21 31 39 48 54 49 47 42 44 48 48 55 63 79 82 85 84 81
36 35 36 37 46 45 51 56 53 45 32 9 13 11 10 10 10 13 13 4 12 8 13 12 7 5 3 1 3 4 6 6 5 4 7 11 27 35 41 46 52 56 55 44 43 47 49 52 58 67 90 84 91 86
33 31 31 43 48 56 60 53 52 52 12 12 11 9 14 18 26 19 3 9 9 6 10 10 7 8 1 2 4 6 5 3 3 6 7 20 24 31 40 50 51 58 57 44 44 44 47 48 53 63 74 86 77 92
29 28 46 53 59 59 59 56 58 26 9 8 10 7 14 15 11 12 13 12 9 5 6 6 6 7 3 3 6 1 5 2 4 3 12 19 24 29 35 42 48 53 55 42 42 42 43 50 48 51 68 80 78 86
53 42 57 65 63 68 61 56 31 9 9 8 13 22 19 19 15 15 11 10 8 12 8 2 5 3 5 1 1 3 1 2 10 11 10 15 24 29 32 34 40 48 59 43 41 42 42 45 48 52 63 79 74 79
59 59 69 78 76 66 52 17 11 12 12 15 8 20 19 12 12 12 7 5 8 10 4 1 5 9 6 3 5 6 3 3 4 8 12 16 22 26 27 30 35 36 46 46 39 39 37 42 47 55 55 65 69 70
61 72 80 78 72 38 12 14 9 10 13 14 18 17 20 12 8 11 7 5 2 2 4 6 3 3 5 4 10 12 7 6 5 10 11 14 17 23 26 27 30 31 37 45 49 50 42 40 39 46 48 56 60 62
64 73 76 70 55 10 9 9 13 8 12 16 20 26 21 18 13 11 8 9 10 7 6 3 5 6 12 13 12 7 9 6 6 8 12 15 19 20 24 28 29 31 31 32 32 44 54 50 39 43 52 47 51 56
81 75 68 61 25 9 7 12 12 11 11 15 28 27 16 17 16 13 10 9 10 1 6 5 15 17 19 16 11 9 8 7 8 7 10 16 18 21 23 25 28 29 30 33 35 37 42 54 51 38 49 44 44 45
67 74 50 31 6 5 5 12 8 14 12 16 29 24 19 17 14 10 8 11 4 6 6 16 19 22 19 14 11 11 12 10 8 8 14 12 20 22 24 26 31 34 33 35 36 38 39 46 55 41 36 42 39 42
75 50 14 8 6 5 6 18 13 14 8 24 28 12 9 8 8 13 6 6 7 11 16 19 20 20 18 17 16 13 11 11 11 13 14 15 18 21 22 25 28 34 36 39 39 42 44 42 42 52 36 33 33 39
36 10 8 9 9 8 15 14 11 9 12 14 14 9 10 10 13 9 6 11 11 22 23 25 25 23 18 15 14 12 9 7 8 11 14 15 16 20 21 22 24 30 31 34 38 41 43 44 43 42 46 36 31 34
9 8 9 5 10 11 12 14 12 9 11 13 17 9 8 13 9 8 9 16 25 28 27 27 24 21 17 16 14 10 9 7 7 9 12 15 14 15 18 20 22 30 32 36 40 41 43 44 45 44 39 40 32 27
4 9 13 11 11 11 10 13 15 16 10 10 10 13 12 8 8 6 5 23 29 32 31 28 24 19 16 14 14 12 8 7 7 7 10 13 15 16 18 21 24 28 31 35 37 40 43 42 43 46 45 42 38 26
6 7 10 7 10 10 7 6 14 14 14 9 9 10 9 9 11 7 8 14 24 29 27 24 22 20 19 16 13 11 8 8 10 8 7 10 13 17 18 20 23 26 25 31 35 37 41 40 42 42 42 40 41 37
1 7 11 16 10 7 5 9 10 13 9 10 17 12 11 6 6 6 8 14 27 29 27 24 21 21 20 16 14 12 9 9 7 8 7 8 12 18 18 17 20 33 25 28 33 33 39 35 37 38 40 40 38 36
6 7 22 14 10 7 9 8 6 5 3 13 12 5 8 8 13 12 18 26 30 30 29 28 25 23 21 18 16 12 11 10 9 10 8 4 5 12 18 19 20 22 24 24 32 40 41 35 38 36 36 34 35 36
11 16 7 10 9 6 5 6 9 10 10 16 18 27 27 19 15 19 24 26 27 27 25 24 24 22 19 17 15 13 12 13 12 8 6 4 8 12 15 18 20 21 23 25 26 27 35 30 30 31 35 34 38 40
16 10 7 9 6 9 16 16 18 17 15 20 21 27 25 19 17 17 15 17 20 22 23 22 21 18 16 14 11 11 9 7 10 9 9 7 8 10 15 17 19 20 21 23 25 28 33 31 32 36 36 38 40 41
11 11 11 6 7 15 17 9 7 14 16 21 16 20 23 18 12 12 11 12 16 18 18 19 19 17 14 12 7 11 16 10 5 5 4 5 7 11 13 15 16 18 20 20 22 24 31 34 35 36 38 39 39 40
6 10 5 10 9 8 11 9 7 8 8 7 10 17 14 9 8 7 10 11 10 14 18 16 17 16 15 14 13 12 11 3 7 7 9 11 13 14 12 14 14 16 17 16 17 19 25 28 29 32 33 34 37 37
Wind_Direction_500mb
280 282 281 272 266 264 263 267 270 278 273 285 285 268 277 287 293 301 250 277 266 271 285 283 273 276 278 249 286 20 262 196 241 266 274 318 335 306 294 297 284 237 243 216 246 242 259 13 343 308 317 312 318 317
283 285 285 279 272 265 257 263 270 270 274 285 284 261 272 281 291 296 304 268 275 261 266 286 276 258 249 260 293 287 319 358 350 307 351 328 316 281 335 292 324 306 340 274 268 294 314 321 322 314 318 306 310 307
290 285 285 283 279 262 257 257 270 266 271 261 299 255 272 282 289 288 251 276 298 288 306 249 259 245 233 237 228 252 27 23 1 340 336 308 274 239 272 255 304 299 310 280 318 269 321 325 308 314 315 313 313 308
294 298 295 288 278 265 258 253 261 267 264 276 272 254 264 279 286 286 243 271 258 282 279 146 230 239 236 217 220 225 250 303 306 312 316 261 255 282 291 304 300 354 325 351 292 293 327 307 321 317 309 315 313 309
295 303 297 298 289 272 256 257 254 262 264 266 281 251 256 274 282 281 256 245 241 240 312 307 295 248 235 218 227 229 237 253 265 273 243 264 289 293 281 273 52 10 348 312 285 304 295 295 297 298 298 310 311 309
286 293 290 287 293 282 261 259 252 254 266 258 280 231 246 257 275 284 291 224 224 214 285 291 330 215 199 226 234 229 228 240 247 253 281 278 249 316 306 291 68 339 335 333 289 292 296 296 295 296 318 315 311 314
289 289 284 281 280 285 266 259 254 253 270 253 261 264 234 259 278 221 240 169 184 193 255 280 264 192 198 230 204 191 184 207 203 237 243 256 250 187 253 276 337 334 327 322 310 311 312 316 320 325 323 318 315 318
280 280 284 281 272 272 267 253 254 250 254 233 233 245 246 272 280 247 220 210 191 204 244 271 271 208 191 248 190 178 181 188 209 235 236 234 260 219 232 338 337 331 328 320 318 318 310 319 324 326 327 328 325 321
276 277 279 275 270 270 261 239 248 244 212 205 228 215 259 254 216 221 198 200 207 222 257 235 264 154 184 243 237 197 182 200 191 218 216 160 226 68 342 326 330 331 323 309 316 317 322 331 331 334 329 329 334 329
270 275 270 270 270 264 244 227 235 207 189 199 199 237 224 215 183 156 142 172 202 219 226 254 262 271 273 310 278 251 175 224 189 167 119 223 75 92 345 344 333 331 331 325 322 325 339 339 338 340 334 334 330 334
269 267 262 265 263 249 203 218 208 180 186 185 196 199 224 162 157 206 223 194 188 224 218 238 245 295 132 301 313 352 21 276 270 106 228 193 119 356 346 347 340 342 339 330 329 330 344 342 344 342 339 340 342 344
256 256 257 257 248 218 198 206 189 188 182 182 172 154 148 171 194 236 222 196 204 236 175 219 202 224 86 261 249 226 247 221 273 184 226 135 33 351 350 345 343 343 343 338 342 340 348 350 350 347 347 346 350 352
252 255 253 246 228 189 197 194 191 194 166 151 135 158 181 171 217 224 206 198 218 181 174 196 194 187 158 197 222 237 246 242 263 215 72 61 14 349 346 343 345 346 346 346 347 347 352 353 354 350 348 359 1 359
254 253 247 225 188 181 189 188 187 185 160 150 165 180 222 179 230 219 256 232 100 154 169 200 177 145 139 108 317 292 288 331 276 193 72 40 1 341 338 340 344 347 351 345 346 349 354 357 353 349 0 360 1 7
248 246 215 184 175 180 183 179 182 176 153 176 195 207 210 238 261 207 162 107 144 150 187 182 121 112 13 271 283 301 238 161 347 37 356 348 342 339 335 337 342 349 350 344 345 349 351 353 355 352 355 3 359 11
227 182 181 168 176 177 170 172 176 161 156 195 222 231 231 228 211 187 199 144 168 167 189 242 156 133 157 253 245 249 286 55 65 296 341 333 336 337 334 333 338 349 351 344 345 349 352 356 357 353 359 1 3 7
177 172 172 171 168 167 169 163 156 160 196 216 215 223 254 230 188 189 192 161 170 232 235 106 199 148 145 58 140 272 342 43 288 7 347 341 335 335 335 332 338 345 355 353 347 352 353 357 358 0 1 1 6 14
175 169 167 170 169 163 158 143 153 176 214 215 202 214 213 240 168 154 168 181 226 226 208 223 82 192 175 178 122 169 154 317 4 12 339 344 339 336 339 337 339 345 348 2 357 352 353 358 2 3 4 358 6 14
169 167 172 171 165 137 128 169 182 208 210 180 216 182 193 161 81 125 152 174 229 104 155 202 122 147 136 33 84 86 77 29 7 338 334 340 348 342 341 344 342 346 346 358 12 9 2 358 358 6 8 1 3 4
167 169 170 167 152 120 131 151 180 195 184 198 192 184 177 176 163 167 161 168 168 174 174 213 45 100 115 107 109 92 76 71 34 12 13 5 0 359 350 350 350 345 351 353 356 356 13 13 10 17 17 3 4 5
161 166 166 156 139 114 165 158 174 198 174 178 182 169 153 171 172 179 164 176 202 267 137 128 122 116 122 119 105 89 79 84 56 35 16 14 15 17 13 4 2 2 2 1 358 356 360 9 6 11 13 8 5 8
149 163 144 145 90 145 189 180 178 171 183 170 166 177 170 188 175 174 150 202 166 143 153 145 138 142 136 122 105 99 104 92 55 17 16 19 23 23 23 17 8 8 10 6 5 360 359 357 5 9 2 13 7 6
155 145 105 112 125 138 184 160 184 185 174 174 178 172 159 177 119 153 207 160 167 177 158 145 145 144 135 126 117 106 101 83 66 50 38 38 36 32 30 26 17 11 10 9 6 3 2 3 355 5 13 10 13 10
123 115 135 156 169 172 165 184 177 188 181 170 178 185 158 138 161 226 199 154 158 165 159 157 152 146 142 142 130 119 113 95 72 52 39 34 32 30 28 27 22 15 12 5 6 9 6 4 5 -0 9 20 17 18
126 156 147 200 190 166 169 162 181 193 182 180 185 140 147 163 197 218 205 157 174 173 168 170 170 169 159 140 139 129 109 107 94 67 44 33 32 29 28 25 22 12 13 8 6 7 7 5 6 7 6 7 19 22
141 168 188 175 169 171 174 164 188 195 169 176 179 136 155 186 197 223 169 155 176 176 175 177 174 168 156 155 146 136 121 119 108 85 50 38 36 33 26 21 14 4 13 6 4 4 3 6 5 5 7 5 8 21
150 199 183 194 174 151 108 154 175 188 180 179 156 154 194 171 208 91 130 153 169 171 171 171 171 167 161 151 143 137 126 109 122 127 95 66 43 39 34 22 12 1 10 1 4 4 2 3 2 3 4 7 360 2
180 163 154 162 127 134 154 181 168 189 194 163 162 185 184 190 85 84 129 161 158 157 158 156 155 154 151 144 133 128 121 127 118 119 108 61 48 31 29 20 0 16 12 357 1 2 1 3 1 1 1 1 358 360
175 181 149 147 110 205 211 197 196 148 134 187 177 113 97 78 105 123 138 145 147 153 152 150 147 149 139 129 120 112 107 111 131 126 132 102 6 7 8 9 6 7 3 5 354 350 352 11 358 1 2 0 353 359
159 155 133 156 165 194 130 78 99 99 85 95 105 105 91 99 110 124 136 144 152 156 157 159 158 155 152 145 132 113 96 92 95 109 132 92 16 355 355 360 1 2 357 357 355 350 348 6 354 359 1 1 356 360
148 146 154 156 142 115 119 119 116 100 96 97 112 121 129 124 104 100 136 148 154 158 160 161 164 164 162 160 156 151 128 87 74 75 95 45 3 356 355 357 352 353 354 353 353 351 354 356 352 352 355 355 352 352
167 188 169 132 124 122 121 113 81 111 116 127 123 123 128 128 114 136 101 132 158 161 166 166 168 162 160 155 145 140 132 140 125 63 63 35 3 353 358 348 349 349 351 350 350 349 347 348 349 349 347 347 349 346
132 152 122 114 130 136 148 128 108 102 106 96 91 95 97 99 100 131 139 125 116 152 160 157 150 151 149 146 147 137 143 155 336 330 341 340 340 343 355 344 352 355 349 348 350 354 347 348 351 350 349 349 348 347
Wind_Speed_850mb
46 47 49 54 60 65 66 64 61 53 51 42 40 33 31 33 32 24 10 20 12 16 41 33 27 22 17 16 12 20 11 8 6 7 4 5 7 9 13 18 18 7 7 10 14 12 15 18 30 11 32 61 59 61
43 45 47 45 47 49 64 61 56 48 39 41 41 33 34 33 32 25 9 13 13 21 28 32 34 32 29 24 19 11 10 7 9 7 5 7 5 9 10 9 9 8 2 7 10 11 45 51 41 53 56 49 64 58
40 45 45 43 43 42 51 61 54 50 45 30 34 31 32 32 34 28 11 17 18 19 34 19 16 19 17 22 20 12 16 7 4 13 8 5 8 8 7 11 20 15 24 14 22 7 41 53 58 47 53 61 64 68
34 34 37 41 41 39 41 61 56 48 42 31 33 30 30 34 37 30 12 11 15 14 12 1 10 7 10 16 20 24 17 10 12 11 4 7 7 8 10 14 21 15 26 19 24 33 58 28 46 51 60 70 83 75
39 40 35 36 38 37 41 50 60 47 42 37 33 30 31 37 35 28 18 19 25 11 13 27 36 29 20 16 14 19 22 21 17 10 6 6 14 13 12 14 4 8 7 6 11 50 43 56 67 85 92 80 84 68
41 42 43 39 38 37 38 39 57 47 40 31 29 23 36 36 33 16 7 15 27 24 9 8 11 13 18 15 15 19 19 16 17 6 9 12 7 2 6 7 10 35 38 32 16 49 66 80 90 69 70 92 75 75
45 45 44 43 40 38 37 35 50 47 31 23 16 18 37 33 30 15 5 7 17 17 7 11 9 20 19 12 16 17 18 9 11 4 10 15 6 6 3 5 37 48 45 53 40 50 56 54 70 72 77 87 72 72
48 48 47 41 39 37 36 31 42 43 23 14 16 26 30 28 28 25 22 19 27 12 8 6 10 16 20 18 20 17 14 11 14 9 8 8 1 12 7 23 49 47 56 40 47 57 60 63 68 72 86 77 71 66
47 45 39 34 34 35 34 26 36 32 18 18 19 25 20 12 10 9 16 20 26 16 6 8 8 3 12 24 12 20 17 8 14 8 5 7 7 2 15 28 41 52 44 55 58 55 56 60 64 73 82 67 68 68
48 47 43 38 34 33 29 25 35 23 26 23 27 9 8 10 15 16 12 17 20 13 14 10 31 12 3 11 11 5 13 8 10 4 11 5 5 6 22 29 38 47 46 44 50 54 62 70 70 73 75 70 62 67
54 48 41 38 34 30 30 34 31 37 37 37 14 13 11 18 20 6 9 14 15 8 14 18 26 15 1 9 7 10 4 6 4 4 4 8 4 19 33 38 48 50 41 41 43 49 54 62 60 74 82 70 69 67
47 42 39 34 34 33 32 43 49 49 35 24 17 16 19 9 7 7 8 9 12 8 17 20 12 12 2 0 1 4 4 6 2 9 6 6 8 28 37 44 51 49 46 44 43 49 53 61 66 76 82 75 78 74
37 37 37 35 36 43 40 49 53 48 34 31 10 8 8 11 11 10 12 8 7 14 17 17 11 9 10 5 8 4 6 4 5 5 5 6 21 31 39 48 54 49 47 42 44 48 48 55 63 79 82 85 84 81
36 35 36 37 46 45 51 56 53 45 32 9 13 11 10 10 10 13 13 4 12 8 13 12 7 5 3 1 3 4 6 6 5 4 7 11 27 35 41 46 52 56 55 44 43 47 49 52 58 67 90 84 91 86
33 31 31 43 48 56 60 53 52 52 12 12 11 9 14 18 26 19 3 9 9 6 10 10 7 8 1 2 4 6 5 3 3 6 7 20 24 31 40 50 51 58 57 44 44 44 47 48 53 63 74 86 77 92
29 28 46 53 59 59 59 56 58 26 9 8 10 7 14 15 11 12 13 12 9 5 6 6 6 7 3 3 6 1 5 2 4 3 12 19 24 29 35 42 48 53 55 42 42 42 43 50 48 51 68 80 78 86
53 42 57 65 63 68 61 56 31 9 9 8 13 22 19 19 15 15 11 10 8 12 8 2 5 3 5 1 1 3 1 2 10 11 10 15 24 29 32 34 40 48 59 43 41 42 42 45 48 52 63 79 74 79
59 59 69 78 76 66 52 17 11 12 12 15 8 20 19 12 12 12 7 5 8 10 4 1 5 9 6 3 5 6 3 3 4 8 12 16 22 26 27 30 35 36 46 46 39 39 37 42 47 55 55 65 69 70
61 72 80 78 72 38 12 14 9 10 13 14 18 17 20 12 8 11 7 5 2 2 4 6 3 3 5 4 10 12 7 6 5 10 11 14 17 23 26 27 30 31 37 45 49 50 42 40 39 46 48 56 60 62
64 73 76 70 55 10 9 9 13 8 12 16 20 26 21 18 13 11 8 9 10 7 6 3 5 6 12 13 12 7 9 6 6 8 12 15 19 20 24 28 29 31 31 32 32 44 54 50 39 43 52 47 51 56
81 75 68 61 25 9 7 12 12 11 11 15 28 27 16 17 16 13 10 9 10 1 6 5 15 17 19 16 11 9 8 7 8 7 10 16 18 21 23 25 28 29 30 33 35 37 42 54 51 38 49 44 44 45
67 74 50 31 6 5 5 12 8 14 12 16 29 24 19 17 14 10 8 11 4 6 6 16 19 22 19 14 11 11 12 10 8 8 14 12 20 22 24 26 31 34 33 35 36 38 39 46 55 41 36 42 39 42
75 50 14 8 6 5 6 18 13 14 8 24 28 12 9 8 8 13 6 6 7 11 16 19 20 20 18 17 16 13 11 11 11 13 14 15 18 21 22 25 28 34 36 39 39 42 44 42 42 52 36 33 33 39
36 10 8 9 9 8 15 14 11 9 12 14 14 9 10 10 13 9 6 11 11 22 23 25 25 23 18 15 14 12 9 7 8 11 14 15 16 20 21 22 24 30 31 34 38 41 43 44 43 42 46 36 31 34
9 8 9 5 10 11 12 14 12 9 11 13 17 9 8 13 9 8 9 16 25 28 27 27 24 21 17 16 14 10 9 7 7 9 12 15 14 15 18 20 22 30 32 36 40 41 43 44 45 44 39 40 32 27
4 9 13 11 11 11 10 13 15 16 10 10 10 13 12 8 8 6 5 23 29 32 31 28 24 19 16 14 14 12 8 7 7 7 10 13 15 16 18 21 24 28 31 35 37 40 43 42 43 46 45 42 38 26
6 7 10 7 10 10 7 6 14 14 14 9 9 10 9 9 11 7 8 14 24 29 27 24 22 20 19 16 13 11 8 8 10 8 7 10 13 17 18 20 23 26 25 31 35 37 41 40 42 42 42 40 41 37
1 7 11 16 10 7 5 9 10 13 9 10 17 12 11 6 6 6 8 14 27 29 27 24 21 21 20 16 14 12 9 9 7 8 7 8 12 18 18 17 20 33 25 28 33 33 39 35 37 38 40 40 38 36
6 7 22 14 10 7 9 8 6 5 3 13 12 5 8 8 13 12 18 26 30 30 29 28 25 23 21 18 16 12 11 10 9 10 8 4 5 12 18 19 20 22 24 24 32 40 41 35 38 36 36 34 35 36
11 16 7 10 9 6 5 6 9 10 10 16 18 27 27 19 15 19 24 26 27 27 25 24 24 22 19 17 15 13 12 13 12 8 6 4 8 12 15 18 20 21 23 25 26 27 35 30 30 31 35 34 38 40
16 10 7 9 6 9 16 16 18 17 15 20 21 27 25 19 17 17 15 17 20 22 23 22 21 18 16 14 11 11 9 7 10 9 9 7 8 10 15 17 19 20 21 23 25 28 33 31 32 36 36 38 40 41
11 11 11 6 7 15 17 9 7 14 16 21 16 20 23 18 12 12 11 12 16 18 18 19 19 17 14 12 7 11 16 10 5 5 4 5 7 11 13 15 16 18 20 20 22 24 31 34 35 36 38 39 39 40
6 10 5 10 9 8 11 9 7 8 8 7 10 17 14 9 8 7 10 11 10 14 18 16 17 16 15 14 13 12 11 3 7 7 9 11 13 14 12 14 14 16 17 16 17 19 25 28 29 32 33 34 37 37
Wind_Direction_850mb
280 282 281 272 266 264 263 267 270 278 273 285 285 268 277 287 293 301 250 277 266 271 285 283 273 276 278 249 286 20 262 196 241 266 274 318 335 306 294 297 284 237 243 216 246 242 259 13 343 308 317 312 318 317
283 285 285 279 272 265 257 263 270 270 274 285 284 261 272 281 291 296 304 268 275 261 266 286 276 258 249 260 293 287 319 358 350 307 351 328 316 281 335 292 324 306 340 274 268 294 314 321 322 314 318 306 310 307
290 285 285 283 279 262 257 257 270 266 271 261 299 255 272 282 289 288 251 276 298 288 306 249 259 245 233 237 228 252 27 23 1 340 336 308 274 239 272 255 304 299 310 280 318 269 321 325 308 314 315 313 313 308
294 298 295 288 278 265 258 253 261 267 264 276 272 254 264 279 286 286 243 271 258 282 279 146 230 239 236 217 220 225 250 303 306 312 316 261 255 282 291 304 300 354 325 351 292 293 327 307 321 317 309 315 313 309
295 303 297 298 289 272 256 257 254 262 264 266 281 251 256 274 282 281 256 245 241 240 312 307 295 248 235 218 227 229 237 253 265 273 243 264 289 293 281 273 52 10 348 312 285 304 295 295 297 298 298 310 311 309
286 293 290 287 293 282 261 259 252 254 266 258 280 231 246 257 275 284 291 224 224 214 285 291 330 215 199 226 234 229 228 240 247 253 281 278 249 316 306 291 68 339 335 333 289 292 296 296 295 296 318 315 311 314
289 289 284 281 280 285 266 259 254 253 270 253 261 264 234 259 278 221 240 169 184 193 255 280 264 192 198 230 204 191 184 207 203 237 243 256 250 187 253 276 337 334 327 322 310 311 312 316 320 325 323 318 315 318
280 280 284 281 272 272 267 253 254 250 254 233 233 245 246 272 280 247 220 210 191 204 244 271 271 208 191 248 190 178 181 188 209 235 236 234 260 219 232 338 337 331 328 320 318 318 310 319 324 326 327 328 325 321
276 277 279 275 270 270 261 239 248 244 212 205 228 215 259 254 216 221 198 200 207 222 257 235 264 154 184 243 237 197 182 200 191 218 216 160 226 68 342 326 330 331 323 309 316 317 322 331 331 334 329 329 334 329
270 275 270 270 270 264 244 227 235 207 189 199 199 237 224 215 183 156 142 172 202 219 226 254 262 271 273 310 278 251 175 224 189 167 119 223 75 92 345 344 333 331 331 325 322 325 339 339 338 340 334 334 330 334
269 267 262 265 263 249 203 218 208 180 186 185 196 199 224 162 157 206 223 194 188 224 218 238 245 295 132 301 313 352 21 276 270 106 228 193 119 356 346 347 340 342 339 330 329 330 344 342 344 342 339 340 342 344
256 256 257 257 248 218 198 206 189 188 182 182 172 154 148 171 194 236 222 196 204 236 175 219 202 224 86 261 249 226 247 221 273 184 226 135 33 351 350 345 343 343 343 338 342 340 348 350 350 347 347 346 350 352
252 255 253 246 228 189 197 194 191 194 166 151 135 158 181 171 217 224 206 198 218 181 174 196 194 187 158 197 222 237 246 242 263 215 72 61 14 349 346 343 345 346 346 346 347 347 352 353 354 350 348 359 1 359
254 253 247 225 188 181 189 188 187 185 160 150 165 180 222 179 230 219 256 232 100 154 169 200 177 145 139 108 317 292 288 331 276 193 72 40 1 341 338 340 344 347 351 345 346 349 354 357 353 349 0 360 1 7
248 246 215 184 175 180 183 179 182 176 153 176 195 207 210 238 261 207 162 107 144 150 187 182 121 112 13 271 283 301 238 161 347 37 356 348 342 339 335 337 342 349 350 344 345 349 351 353 355 352 355 3 359 11
227 182 181 168 176 177 170 172 176 161 156 195 222 231 231 228 211 187 199 144 168 167 189 242 156 133 157 253 245 249 286 55 65 296 341 333 336 337 334 333 338 349 351 344 345 349 352 356 357 353 359 1 3 7
177 172 172 171 168 167 169 163 156 160 196 216 215 223 254 230 188 189 192 161 170 232 235 106 199 148 145 58 140 272 342 43 288 7 347 341 335 335 335 332 338 345 355 353 347 352 353 357 358 0 1 1 6 14
175 169 167 170 169 163 158 143 153 176 214 215 202 214 213 240 168 154 168 181 226 226 208 223 82 192 175 178 122 169 154 317 4 12 339 344 339 336 339 337 339 345 348 2 357 352 353 358 2 3 4 358 6 14
169 167 172 171 165 137 128 169 182 208 210 180 216 182 193 161 81 125 152 174 229 104 155 202 122 147 136 33 84 86 77 29 7 338 334 340 348 342 341 344 342 346 346 358 12 9 2 358 358 6 8 1 3 4
167 169 170 167 152 120 131 151 180 195 184 198 192 184 177 176 163 167 161 168 168 174 174 213 45 100 115 107 109 92 76 71 34 12 13 5 0 359 350 350 350 345 351 353 356 356 13 13 10 17 17 3 4 5
161 166 166 156 139 114 165 158 174 198 174 178 182 169 153 171 172 179 164 176 202 267 137 128 122 116 122 119 105 89 79 84 56 35 16 14 15 17 13 4 2 2 2 1 358 356 360 9 6 11 13 8 5 8
149 163 144 145 90 145 189 180 178 171 183 170 166 177 170 188 175 174 150 202 166 143 153 145 138 142 136 122 105 99 104 92 55 17 16 19 23 23 23 17 8 8 10 6 5 360 359 357 5 9 2 13 7 6
155 145 105 112 125 138 184 160 184 185 174 174 178 172 159 177 119 153 207 160 167 177 158 145 145 144 135 126 117 106 101 83 66 50 38 38 36 32 30 26 17 11 10 9 6 3 2 3 355 5 13 10 13 10
123 115 135 156 169 172 165 184 177 188 181 170 178 185 158 138 161 226 199 154 158 165 159 157 152 146 142 142 130 119 113 95 72 52 39 34 32 30 28 27 22 15 12 5 6 9 6 4 5 -0 9 20 17 18
126 156 147 200 190 166 169 162 181 193 182 180 185 140 147 163 197 218 205 157 174 173 168 170 170 169 159 140 139 129 109 107 94 67 44 33 32 29 28 25 22 12 13 8 6 7 7 5 6 7 6 7 19 22
141 168 188 175 169 171 174 164 188 195 169 176 179 136 155 186 197 223 169 155 176 176 175 177 174 168 156 155 146 136 121 119 108 85 50 38 36 33 26 21 14 4 13 6 4 4 3 6 5 5 7 5 8 21
150 199 183 194 174 151 108 154 175 188 180 179 156 154 194 171 208 91 130 153 169 171 171 171 171 167 161 151 143 137 126 109 122 127 95 66 43 39 34 22 12 1 10 1 4 4 2 3 2 3 4 7 360 2
180 163 154 162 127 134 154 181 168 189 194 163 162 185 184 190 85 84 129 161 158 157 158 156 155 154 151 144 133 128 121 127 118 119 108 61 48 31 29 20 0 16 12 357 1 2 1 3 1 1 1 1 358 360
175 181 149 147 110 205 211 197 196 148 134 187 177 113 97 78 105 123 138 145 147 153 152 150 147 149 139 129 120 112 107 111 131 126 132 102 6 7 8 9 6 7 3 5 354 350 352 11 358 1 2 0 353 359
159 155 133 156 165 194 130 78 99 99 85 95 105 105 91 99 110 124 136 144 152 156 157 159 158 155 152 145 132 113 96 92 95 109 132 92 16 355 355 360 1 2 357 357 355 350 348 6 354 359 1 1 356 360
148 146 154 156 142 115 119 119 116 100 96 97 112 121 129 124 104 100 136 148 154 158 160 161 164 164 162 160 156 151 128 87 74 75 95 45 3 356 355 357 352 353 354 353 353 351 354 356 352 352 355 355 352 352
167 188 169 132 124 122 121 113 81 111 116 127 123 123 128 128 114 136 101 132 158 161 166 166 168 162 160 155 145 140 132 140 125 63 63 35 3 353 358 348 349 349 351 350 350 349 347 348 349 349 347 347 349 346
132 152 122 114 130 136 148 128 108 102 106 96 91 95 97 99 100 131 139 125 116 152 160 157 150 151 149 146 147 137 143 155 336 330 341 340 340 343 355 344 352 355 349 348 350 354 347 348 351 350 349 349 348 347